K5KVN-2 Weather Reports


time (UTC)temp
C
wind
direction
speed
KPH
gust
KPH
rain 1hr
cm
rain 24hr
cm
rain mn
cm
humidity
%
barometer
mb
20260504181517 24 185 24.1 45.1 0.00 0.00 0.00 57 1008.8
20260504180509 24 178 20.9 38.6 0.00 0.00 0.00 55 1009.0
20260504175507 23 228 24.1 46.7 0.00 0.00 0.00 56 1009.0
20260504174505 23 184 24.1 38.6 0.00 0.00 0.00 55 1009.2
20260504173503 23 182 25.7 41.8 0.00 0.00 0.00 57 1009.5
20260504172500 23 163 22.5 37.0 0.00 0.00 0.00 57 1009.6
20260504171504 23 185 24.1 45.1 0.00 0.00 0.00 57 1009.4
20260504170503 22 169 27.4 40.2 0.00 0.00 0.00 56 1009.5
20260504150501 21 194 19.3 41.8 0.00 0.00 0.00 55 1010.4
20260504140502 19 193 16.1 33.8 0.00 0.00 0.00 59 1010.8
20260504130501 17 159 9.7 17.7 0.00 0.00 0.00 65 1011.2
20260504110450 15 200 12.9 22.5 0.00 0.00 0.00 68 1010.8
20260504100448 15 198 9.7 19.3 0.00 0.00 0.00 65 1011.1
20260504081439 17 211 11.3 20.9 0.00 0.00 0.00 59 1011.6
20260504080439 17 178 11.3 20.9 0.00 0.00 0.00 59 1011.7
20260504050438 19 198 9.7 19.3 0.00 0.00 0.00 56 1013.1
20260504045436 19 175 9.7 16.1 0.00 0.00 0.00 56 1012.9
20260504044436 19 225 9.7 16.1 0.00 0.00 0.00 56 1013.1
20260504043437 20 175 9.7 19.3 0.00 0.00 0.00 54 1013.2
20260504042436 20 207 9.7 19.3 0.00 0.00 0.00 54 1013.4
20260504041435 20 197 9.7 20.9 0.00 0.00 0.00 54 1013.3
20260504035918 20 188 11.3 19.3 0.00 0.00 0.00 54 1013.3
20260504034436 19 229 9.7 14.5 0.00 0.00 0.00 55 1013.3
20260504033438 20 178 9.7 16.1 0.00 0.00 0.00 54 1013.3
20260504032435 20 184 9.7 19.3 0.00 0.00 0.00 53 1013.4
20260504031920 20 162 9.7 16.1 0.00 0.00 0.00 53 1013.4
20260504030432 20 194 9.7 16.1 0.00 0.00 0.00 53 1013.4
20260504023916 20 209 11.3 16.1 0.00 0.00 0.00 54 1013.2
20260504022432 20 181 9.7 16.1 0.00 0.00 0.00 53 1013.2
20260504021431 20 182 9.7 16.1 0.00 0.00 0.00 54 1012.9
20260504020432 20 180 9.7 17.7 0.00 0.00 0.00 53 1012.9
20260504015433 20 176 8.0 16.1 0.00 0.00 0.00 54 1012.8
20260504014431 20 188 8.0 11.3 0.00 0.00 0.00 54 1012.8
20260504013436 20 174 6.4 11.3 0.00 0.00 0.00 53 1012.8
20260504012430 21 186 6.4 11.3 0.00 0.00 0.00 52 1012.8
20260504011430 21 192 6.4 11.3 0.00 0.00 0.00 50 1012.7
20260504005431 22 195 8.0 11.3 0.00 0.00 0.00 48 1012.6
20260504004428 22 192 6.4 9.7 0.00 0.00 0.00 47 1012.6
20260504003427 23 186 4.8 8.0 0.00 0.00 0.00 45 1012.6
20260504002427 23 227 4.8 12.9 0.00 0.00 0.00 42 1012.7
20260504001906 24 209 4.8 9.7 0.00 0.00 0.00 40 1012.8
20260504000424 24 215 4.8 11.3 0.00 0.00 0.00 39 1012.8
20260503235424 24 204 6.4 11.3 0.00 0.00 0.00 36 1013.1
20260503234424 25 199 6.4 17.7 0.00 0.00 0.00 35 1013.1
20260503233430 25 199 6.4 17.7 0.00 0.00 0.00 34 1013.2
20260503232420 25 196 8.0 19.3 0.00 0.00 0.00 31 1013.2
20260503231421 25 198 8.0 16.1 0.00 0.00 0.00 31 1013.3
20260503230907 25 250 9.7 16.1 0.00 0.00 0.00 31 1013.3
20260503225414 25 223 8.0 19.3 0.00 0.00 0.00 32 1013.4
20260503224413 25 194 11.3 25.7 0.00 0.00 0.00 40 1013.4
20260503223413 25 168 16.1 25.7 0.00 0.00 0.00 44 1013.3
20260503222413 25 188 17.7 30.6 0.00 0.00 0.00 42 1013.5
20260503221412 25 187 11.3 24.1 0.00 0.00 0.00 41 1013.6
20260503220852 25 227 8.0 17.7 0.00 0.00 0.00 40 1013.7
20260503215407 25 221 14.5 27.4 0.00 0.00 0.00 38 1013.8
20260503214407 25 191 16.1 35.4 0.00 0.00 0.00 41 1013.9
20260503213403 25 177 11.3 29.0 0.00 0.00 0.00 41 1014.0
20260503212406 25 200 14.5 29.0 0.00 0.00 0.00 44 1014.2
20260503211403 25 188 16.1 29.0 0.00 0.00 0.00 42 1014.3
20260503210404 25 221 12.9 25.7 0.00 0.00 0.00 43 1014.5
20260503205403 25 165 14.5 29.0 0.00 0.00 0.00 44 1014.8
20260503204401 25 180 9.7 17.7 0.00 0.00 0.00 44 1015.1
20260503203402 25 217 12.9 25.7 0.00 0.00 0.00 46 1015.1
20260503202401 25 184 14.5 27.4 0.00 0.00 0.00 47 1015.3
20260503201845 25 178 11.3 25.7 0.00 0.00 0.00 44 1015.4
20260503200358 25 205 12.9 25.7 0.00 0.00 0.00 44 1015.7
20260503195358 25 177 12.9 27.4 0.00 0.00 0.00 43 1015.7
20260503194837 25 174 14.5 25.7 0.00 0.00 0.00 49 1016.1
20260503193400 25 195 11.3 24.1 0.00 0.00 0.00 46 1016.3
20260503192359 24 188 9.7 20.9 0.00 0.00 0.00 46 1016.4
20260503191358 24 205 14.5 29.0 0.00 0.00 0.00 46 1016.5
20260503190358 23 192 14.5 27.4 0.00 0.00 0.00 47 1016.6
20260503185832 23 242 14.5 24.1 0.00 0.00 0.00 48 1016.7
20260503184357 23 184 9.7 20.9 0.00 0.00 0.00 46 1016.6
20260503183354 23 240 12.9 25.7 0.00 0.00 0.00 47 1016.7
20260503182353 23 210 12.9 27.4 0.00 0.00 0.00 48 1016.9